Current Weather Conditions: station 63109

sailwx.info

Wind from 190 at 20 knots

Air temperature 8.8° C
Dewpoint 7.8° C

Last reported at 2018-May-21 04:00 UTC.
Time now 2018-May-21 05:27 UTC

Location: N 59°36' E 001°30'.
View on Google Maps.

See reports from other nearby stations

  
Tides and Currents Weather Stations Pressure Air Temp Water Temp Dewpoint Dewpoint Depression Visibility Wind Speed Wind Dir Waves Ship Positions
date/time (UTC)wind fromknots sea level pressurealtimeterstation pressurevisibilityair tempwater tempwave heightnotes
2018-May-21 04:00 190 20 8.8
2018-May-21 03:00 190 21 9.0
2018-May-21 02:00 190 22 9.1
2018-May-21 01:00 190 21 9.3
2018-May-21 00:00 190 25 9.5
2018-May-20 23:00 190 25 9.7
2018-May-20 22:00 180 21 9.7
2018-May-20 21:00 190 22 9.9
2018-May-20 20:00 190 24 10.0
2018-May-20 19:00 190 25 10.1
2018-May-20 18:00 190 25 10.4
2018-May-20 17:00 180 27 10.8
2018-May-20 16:00 190 27 10.8
2018-May-20 15:00 180 27 10.8
2018-May-20 14:00 180 27 10.4
2018-May-20 13:00 190 27 10.6
2018-May-20 12:00 190 27 10.5
2018-May-20 11:00 190 27 10.7
2018-May-20 10:00 190 27 11.0
2018-May-20 09:00 190 27 11.0
2018-May-20 08:00 190 26 10.8
2018-May-20 07:00 190 27 11.0
2018-May-20 06:00 190 27 10.6
2018-May-20 05:00 190 27 10.3
2018-May-20 04:00 190 27 10.2
2018-May-20 03:00 190 27 10.2
2018-May-20 02:00 190 25 10.2
2018-May-20 01:00 190 26 10.1
2018-May-20 00:00 180 25 9.9
2018-May-19 23:00 190 24 9.8
2018-May-19 22:00 180 24 9.9
2018-May-19 21:00 180 24 9.9
2018-May-19 20:00 180 20 10.1
2018-May-19 19:00 180 20 10.9
2018-May-19 18:00 190 18 11.6
2018-May-19 17:00 190 18 11.6
2018-May-19 16:00 190 17 12.0
2018-May-19 15:00 190 17 11.2
2018-May-19 14:00 180 19 10.8
2018-May-19 13:00 190 18 10.6
2018-May-19 12:00 180 20 10.3
2018-May-19 11:00 190 17 10.4
2018-May-19 10:00 190 15 10.3
2018-May-19 09:00 190 14 10.5
2018-May-19 08:00 190 13 10.4
2018-May-19 07:00 190 13 10.2
2018-May-19 06:00 200 11 10.1
2018-May-19 05:00 200 9 10.2